Location: Unspecified
(0.0000°N, 0.0000°E)
Time: 08:38:49
(UTC+00:00)

Tiangong - Pass Details

Date: 18 April 2026
Orbit: 378 x 384 km, 41.5° (Epoch: 9 April)

Event Time Altitude Azimuth Distance (km) Brightness Sun altitude
Rises 18:36:37 0° 346° (NNW) 2,224 2.1 -9.2°
Reaches altitude 10° 18:39:54 10° 24° (NNE) 1,377 0.5 -10.0°
Maximum altitude 18:40:53 11° 43° (NE) 1,314 0.3 -10.2°
Drops below altitude 10° 18:41:52 10° 61° (ENE) 1,378 0.2 -10.4°
Enters shadow 18:41:52 10° 62° (ENE) 1,380 0.2 -10.4°
